Powrót do katalogu

STARLINK-2055

AktywnyŁącznośćVLEO
NORAD 47358·PAYLOAD·🇺🇸 United States

Wystrzelony Jan 20, 2021 z Cape Canaveral Space Force Station

Loading…

Następne Przeloty (najbliższe 24 godziny)

TLE

ŚwieżeSource: CelesTrak SupGP

Epoka: Sep 14, 2026, 21:41 UTC

1 47358C 21005K   26257.90395833  .00060856  00000+0  16454-2 0  2570
2 47358  53.1557 235.3253 0003342  54.4427  61.7127 15.37120582    15

Śledź STARLINK-2055 w czasie rzeczywistym z AllMySat

Download on the App Store